#timestamp,LO_Frequency,Hit,StdDev 
1525597215.0,286046998.5,N
1525597215.9,286046998.5,N
1525597235.7,286047000.5,N
1525597255.6,286046998.1,N
1525597275.4,286046999.4,N
1525597295.3,286046999.5,N
1525597315.1,286046999.5,N
1525597316.0,286046999.5,N
1525597335.8,286046999.2,N
1525597355.7,286047001.1,N
1525597375.5,286046998.6,N
1525597395.3,286046998.5,N
1525597415.2,286046998.3,N
1525597435.0,286047000.6,N
1525597435.9,286047000.6,N
1525597455.8,286047000.4,N
1525597475.6,286047000.7,N
1525597495.4,286046999.1,N
1525597515.3,286046998.7,N
1525597535.1,286046999.0,N
1525597555.9,286046998.7,N
1525597575.7,286046997.3,N
1525597595.5,286046999.0,N
1525597615.4,286046996.8,N
1525597635.2,286046996.4,N
1525597655.0,286046996.7,N
1525597655.9,286046996.7,N
1525597675.8,286046999.6,N
1525597695.6,286046998.9,N
1525597715.5,286047000.7,N
1525597735.3,286047002.1,N
1525597755.1,286047002.3,N
1525597775.9,286046999.7,N
1525597795.7,286047000.3,N
1525597815.5,286046998.2,N
1525597835.4,286047006.6,Y
1525597855.2,286047016.2,P
1525597875.1,286047013.5,N
1525597876.0,286047013.5,N
1525597895.8,286047008.8,N
1525597915.6,286047004.6,N
1525597935.5,286047005.2,N
1525597955.3,286047009.3,N
1525597975.1,286047009.9,N
1525597995.9,286047004.5,N
1525598015.7,286047002.9,N
1525598035.6,286047001.6,N
1525598055.4,286046999.8,N
1525598075.2,286047002.6,N
1525598095.1,286046999.7,N
1525598096.0,286046999.7,N
1525598115.8,286047000.9,N
1525598135.7,286047001.2,N
1525598155.5,286047001.1,N
1525598175.3,286047000.6,N
1525598195.2,286047001.9,N
1525598215.0,286047000.1,N
1525598215.9,286047000.1,N
1525598235.7,286047000.8,N
1525598255.6,286047000.7,N
1525598275.4,286047001.2,N
1525598295.3,286046997.5,N
1525598315.1,286046999.6,N
1525598335.8,286046995.8,N
1525598355.7,286046995.7,N
1525598375.5,286046994.2,N
1525598395.4,286046991.7,N
1525598415.2,286046996.0,N
1525598435.0,286046997.6,N
1525598435.9,286046997.6,N
1525598455.8,286046995.7,N
1525598475.6,286046996.4,N
1525598495.4,286046996.3,N
1525598515.3,286046996.9,N
1525598535.1,286046998.6,N
1525598555.9,286046997.3,N
1525598575.7,286046997.7,N
1525598595.5,286046997.4,N
1525598615.4,286046995.0,N
1525598635.2,286046993.7,N
1525598655.0,286046993.5,N
1525598655.9,286046993.5,N
1525598675.8,286046996.4,N
1525598695.6,286046993.7,N
1525598715.5,286046991.9,Y
1525598735.3,286046997.5,P
1525598755.1,286046995.5,P
1525598775.9,286046997.6,N
1525598795.7,286046999.6,N
1525598815.6,286046998.9,N
1525598835.4,286046998.2,N
1525598855.2,286047000.8,N
1525598875.1,286047000.8,N
1525598876.0,286047000.8,N
1525598895.8,286046998.2,N
1525598915.6,286046999.2,N
1525598935.5,286046998.3,N
1525598955.3,286047000.5,N
1525598975.2,286046999.4,N
1525598995.9,286046998.0,N
1525599015.7,286046997.8,N
1525599035.6,286046999.3,N
1525599055.4,286046997.1,N
1525599075.3,286046995.3,Y
1525599095.1,286046999.4,P
1525599096.0,286046999.4,N
1525599115.8,286046999.2,N
1525599135.7,286046999.4,N
1525599155.5,286046998.4,Y
1525599175.4,286046998.1,P
1525599195.2,286046999.1,N
1525599215.0,286046999.4,N
1525599215.9,286046999.4,N
1525599235.8,286046999.3,N
1525599255.6,286047000.5,N
1525599275.4,286047000.8,N
1525599295.3,286047000.7,N
1525599315.1,286047000.4,N
1525599335.9,286046999.8,N
1525599355.7,286046998.3,N
1525599375.6,286046996.9,Y
1525599395.5,286046998.4,P
1525599415.3,286046998.7,N
1525599435.1,286046998.2,P
1525599455.9,286047001.1,N
1525599475.7,286046998.1,N
1525599495.5,286046998.1,N
1525599515.4,286047001.0,N
1525599535.2,286046998.1,N
1525599555.1,286047001.9,N
1525599556.0,286047001.9,N
1525599575.8,286047004.0,N
1525599595.6,286047004.2,N
1525599615.5,286047001.7,N
1525599635.3,286047002.5,N
1525599655.1,286047001.9,N
1525599675.9,286046999.7,N
1525599695.7,286047000.2,N
1525599715.6,286047000.2,N
1525599735.4,286047000.3,N
1525599755.2,286046999.7,N
1525599775.1,286046999.9,N
1525599776.0,286046999.9,N
1525599795.8,286047000.0,N
1525599815.7,286047000.0,N
1525599835.5,286047002.4,N
1525599855.3,286047000.7,N
1525599875.2,286046998.7,N
1525599895.0,286047001.1,N
1525599895.9,286047001.1,N
1525599915.8,286046998.1,N
1525599935.6,286047002.7,N
1525599955.4,286047000.8,N
1525599975.3,286046999.8,N
1525599995.1,286047002.1,N
1525600015.8,286047000.3,N
1525600035.7,286047002.6,N
1525600055.5,286047000.8,N
1525600075.4,286047000.2,N
1525600095.2,286047000.7,N
1525600115.0,286047000.2,N
1525600115.9,286047000.2,N
1525600135.8,286047002.5,N
1525600155.6,286047002.1,N
1525600175.4,286047004.0,Y
1525600195.3,286046999.8,P
1525600215.1,286047000.1,N
1525600235.9,286047000.5,N
1525600255.7,286046999.7,N
1525600275.5,286047000.7,N
1525600295.4,286046998.5,Y
1525600315.2,286046997.7,P
1525600335.1,286047001.0,N
1525600336.0,286047001.0,N
1525600355.8,286046998.4,N
1525600375.6,286046999.8,N
1525600395.5,286046998.6,N
1525600415.3,286046998.6,N
1525600435.1,286047001.1,N
1525600455.9,286047001.2,N
1525600475.7,286046998.1,N
1525600495.6,286047000.1,N
1525600515.4,286047002.5,N
1525600535.2,286047002.1,N
1525600555.1,286047002.7,N
1525600556.0,286047002.7,N
1525600575.8,286047000.1,N
1525600595.7,286047003.6,N
1525600615.5,286047002.4,N
1525600635.3,286046999.9,N
1525600655.2,286047002.3,N
1525600675.0,286047000.9,N
1525600675.9,286047000.9,N
1525600695.8,286047000.9,N
1525600715.6,286046999.7,N
1525600735.4,286046999.8,N
1525600755.3,286047003.6,N
1525600775.1,286047002.0,N
1525600795.8,286047002.8,N
